Home > Weather > Ehingen (Donau) > Past weeks

Flag for Germany Past Weather in Ehingen (Donau), Baden-Württemberg, Germany — Yesterday and Last 2 Weeks

Now
63 °F

Partly cloudy.


Feels Like: 63 °F
Forecast: 55 / 62 °F
Wind: 3 mph from North

Location: Laupheim Airport

Current Time: Jun 26, 2016 at 1:24:46 AM

Latest Report: Jun 26, 2016 at 12:20 AM


Visibility: N/A

Pressure: 30.09 "Hg (28.34 "Hg at 508m altitude)

Humidity: 77%

Dew Point: 55 °F

Location of Ehingen (Donau)Location

Past Weather in Ehingen (Donau) — Graph

°F

Ehingen (Donau) Temperature Yesterday

Maximum temperature yesterday: 77 °F (at 3:20 PM)
Minimum temperature yesterday: 61 °F (at 4:20 AM)
Average temperature yesterday: 67 °F

High & Low Weather Summary for the Past Weeks

 TemperatureHumidityPressure
High90 °F (Jun 23, 4:20 PM)100% (Jun 20, 2:20 AM)30.30 "Hg (Jun 20, 2:20 AM)
Low46 °F (Jun 20, 5:20 AM)31% (Jun 23, 4:20 PM)29.59 "Hg (Jun 14, 2:20 PM)
Average62 °F78%29.95 "Hg
* Reported Jun 10 11:20 PM — Jun 25 11:20 PM, Ehingen (Donau), Weather by CustomWeather, © 2016

Note: Actual official high and low records may vary slightly from our data, if they occured in-between our weather recording intervals... More about our weather records

Advertising

Ehingen (Donau) Weather History for the Previous 24 Hours

Scroll right to see more
 ConditionsComfort  
Time TempWeatherWind HumidityBarometerVisibility
11:20 PM
Sat, Jun 25
63 °FPartly cloudy.5 mph83%30.09 "HgN/A
10:20 PM63 °FPartly sunny.7 mph83%30.07 "HgN/A
9:20 PM63 °FBroken clouds.7 mph83%30.04 "HgN/A
8:20 PM64 °FBroken clouds.9 mph78%30.04 "HgN/A
7:20 PM66 °FBroken clouds.16 mph73%30.01 "HgN/A
6:20 PM66 °FBroken clouds.10 mph78%29.98 "HgN/A
5:20 PM75 °FThundershowers. Broken clouds.17 mph57%29.95 "HgN/A
4:20 PM75 °FBroken clouds.13 mph61%29.95 "HgN/A
3:20 PM77 °FScattered clouds.10 mph65%29.92 "HgN/A
2:20 PM75 °FScattered clouds.8 mph65%29.92 "HgN/A
1:20 PM75 °FScattered clouds.6 mph65%29.95 "HgN/A
12:20 PM73 °FBroken clouds.6 mph69%29.95 "HgN/A
11:20 AM72 °FScattered clouds.10 mph69%29.98 "HgN/A
10:20 AM70 °FBroken clouds.9 mph78%29.98 "HgN/A
9:20 AM70 °FScattered clouds.7 mph73%30.01 "HgN/A
8:20 AM66 °FScattered clouds.8 mph83%29.98 "HgN/A
7:20 AM63 °FScattered clouds.3 mph88%29.98 "HgN/A
6:20 AM61 °FPassing clouds.7 mph94%29.98 "HgN/A
5:20 AM61 °FPassing clouds.8 mph94%29.98 "HgN/A
4:20 AM61 °FPartly cloudy.6 mph94%29.95 "HgN/A
3:20 AM63 °FPassing clouds.3 mph88%29.98 "HgN/A
2:20 AM64 °FPassing clouds.7 mph83%30.01 "HgN/A
1:20 AM64 °FPassing clouds.6 mph83%30.04 "Hg6 mi
Weather by CustomWeather, © 2016

See weather overviewHow to use our weather pages